TimeEDT,TemperatureF,Dew PointF,Humidity,Sea Level PressureIn,VisibilityMPH,Wind Direction,Wind SpeedMPH,Gust SpeedMPH,PrecipitationIn,Events,Conditions,WindDirDegrees,DateUTC
12:51 AM,70.0,63.0,78,30.15,10.0,SSE,5.8,-,N/A,,Mostly Cloudy,160,2013-09-10 04:51:00
1:51 AM,70.0,63.0,78,30.15,10.0,SSE,4.6,-,N/A,,Overcast,150,2013-09-10 05:51:00
2:51 AM,70.0,63.0,78,30.15,10.0,SSE,4.6,-,N/A,,Overcast,150,2013-09-10 06:51:00
3:51 AM,70.0,63.0,78,30.15,10.0,SSE,4.6,-,N/A,,Mostly Cloudy,160,2013-09-10 07:51:00
4:51 AM,68.0,63.0,84,30.16,10.0,SE,3.5,-,N/A,,Partly Cloudy,140,2013-09-10 08:51:00
5:51 AM,66.0,63.0,90,30.17,9.0,Calm,Calm,-,N/A,,Scattered Clouds,0,2013-09-10 09:51:00
6:51 AM,66.9,63.0,87,30.20,10.0,Calm,Calm,-,N/A,,Mostly Cloudy,0,2013-09-10 10:51:00
7:51 AM,66.9,64.0,90,30.23,8.0,Calm,Calm,-,N/A,,Overcast,0,2013-09-10 11:51:00
8:51 AM,69.1,64.9,87,30.23,10.0,Calm,Calm,-,0.00,,Overcast,0,2013-09-10 12:51:00
9:51 AM,77.0,66.0,69,30.23,10.0,South,8.1,-,N/A,,Mostly Cloudy,170,2013-09-10 13:51:00
10:18 AM,77.0,66.2,69,30.27,10.0,South,4.6,-,N/A,,Overcast,170,2013-09-10 14:18:00
10:51 AM,77.0,66.9,71,30.24,10.0,South,4.6,-,N/A,,Overcast,170,2013-09-10 14:51:00
11:48 AM,80.6,68.0,65,30.27,10.0,SSW,5.8,-,N/A,,Mostly Cloudy,200,2013-09-10 15:48:00
11:51 AM,80.1,68.0,67,30.24,10.0,Variable,3.5,-,N/A,,Mostly Cloudy,0,2013-09-10 15:51:00
12:51 PM,80.1,66.9,64,30.23,10.0,SSW,3.5,-,N/A,,Overcast,200,2013-09-10 16:51:00
1:51 PM,82.0,66.9,60,30.22,10.0,West,4.6,-,N/A,,Scattered Clouds,280,2013-09-10 17:51:00
2:51 PM,82.9,68.0,60,30.20,10.0,Calm,Calm,-,N/A,,Mostly Cloudy,0,2013-09-10 18:51:00
3:51 PM,84.0,68.0,58,30.18,10.0,West,3.5,-,N/A,,Clear,270,2013-09-10 19:51:00
4:51 PM,84.9,68.0,57,30.17,10.0,WNW,3.5,-,N/A,,Clear,300,2013-09-10 20:51:00
5:51 PM,84.0,68.0,58,30.16,10.0,NW,4.6,-,N/A,,Clear,310,2013-09-10 21:51:00
6:51 PM,82.0,70.0,67,30.17,10.0,NNW,3.5,-,N/A,,Scattered Clouds,330,2013-09-10 22:51:00
7:51 PM,73.9,69.1,85,30.19,10.0,Calm,Calm,-,N/A,,Clear,0,2013-09-10 23:51:00
8:51 PM,72.0,68.0,87,30.21,10.0,Calm,Calm,-,N/A,,Clear,0,2013-09-11 00:51:00
9:51 PM,70.0,68.0,93,30.22,9.0,Calm,Calm,-,N/A,,Overcast,0,2013-09-11 01:51:00
10:51 PM,71.1,68.0,90,30.24,7.0,Calm,Calm,-,N/A,,Mostly Cloudy,0,2013-09-11 02:51:00
11:51 PM,68.0,66.0,93,30.24,6.0,Calm,Calm,-,N/A,,Clear,0,2013-09-11 03:51:00